Regional Weather Roundup
Issued by NWS

Home | Current Version | Previous Version | Graphics & Text | Print | Product List | Glossary On
Versions: 1 2 3 4 5 6 7 8 9 10 11 12 13 14 15 16 17 18 19 20 21 22 23 24 25 26 27 28 29 30 31 32 33 34 35 36 37 38 39 40 41 42 43 44 45 46 47 48 49 50
000
ASUS45 KTFX 220610
RWRMT
MONTANA REGIONAL WEATHER ROUNDUP
NATIONAL WEATHER SERVICE GREAT FALLS MT
1200 AM MDT FRI SEP 22 2017

NOTE: "FAIR" INDICATES FEW OR NO CLOUDS BELOW 12000 FEET WITH NO
SIGNIFICANT WEATHER AND/OR OBSTRUCTIONS TO VISIBILITY.

MTZ001>007-043-220700-
WEST OF THE DIVIDE

CITY           SKY/WX    TMP DP  RH WIND       PRES   REMARKS
KALISPELL      PTCLDY    42  35  76 N12       29.95F
MISSOULA       MOCLDY    39  35  86 CALM      29.92S
BUTTE          LGT RAIN  38  33  82 CALM      29.89S
MULLAN PASS    MOCLDY    32  29  88 VRB3      29.91F FOG
ANACONDA         N/A     39  30  70 NE8       29.89R
DEER LODGE       N/A     43  30  61 N8        29.93R
EUREKA           N/A     41  39  93 CALM      30.00S
HAMILTON         N/A     39  34  81 CALM      29.89S
LIBBY            N/A     37  37 100 CALM      29.98R
$$

MTZ008-052>055-220700-
SOUTHWEST MONTANA

CITY           SKY/WX    TMP DP  RH WIND       PRES   REMARKS
BOZEMAN        LGT RAIN  41  38  89 SW3       29.89S
DILLON         LGT RAIN  38  32  79 N13       29.86S WCI  30
W YELLOWSTONE  LGT SNOW  32  32 100 N9G17     29.80F WCI  24
ENNIS          CLOUDY    36  34  93 N17G23    29.88S WCI  25
THREE FORKS      N/A     42  38  86 N3        29.90S
TWIN BRIDGES     N/A     40  30  67 N7        29.86R
$$

MTZ009-010-012-014-046-048-049-054-220700-
EAST SLOPES AND CENTRAL MONTANA

CITY           SKY/WX    TMP DP  RH WIND       PRES   REMARKS
CUT BANK       CLOUDY    37  30  75 N14       30.02S WCI  28
GREAT FALLS    CLOUDY    42  30  62 N16       30.00R
MALMSTROM AFB  MOCLDY    43  32  65 N14       30.00R
HELENA         CLOUDY    45  34  65 N14       29.92R
BOWMANS CRNR   MOCLDY    37  31  79 N16       29.96R WCI  27
CHOTEAU          N/A     39  30  70 N13G21    30.01S WCI  32
FAIRFIELD      CLOUDY    40  29  67 N17G23    29.99R
POWER          CLOUDY    40  29  66 N17G24    29.99R
RAYNESFORD     MOCLDY    42  33  70 W5        29.96R
ULM            MOCLDY    43  32  64 N14       29.98R
$$

MTZ011-013-016-021-045-047-050-051-220700-
NORTH CENTRAL MONTANA

CITY           SKY/WX    TMP DP  RH WIND       PRES   REMARKS
HAVRE          CLOUDY    41  31  67 NW8       30.00R
LEWISTOWN      CLOUDY    44  34  67 E10       29.96R
N BAR RANCH    CLOUDY    41  36  81 NE12      29.99S
CHINOOK          N/A     39  30  70 W3        30.01R
DENTON           N/A     43  34  71 E6        29.95R
GEYSER         MOCLDY    42  31  65 N17       29.96R
GRASS RANGE    LGT RAIN  44  37  76 E8        29.95R
JUDITH GAP     LGT RAIN  39  36  87 S12       29.96R
WINIFRED       MOCLDY    42  34  72 E8        29.97R
$$

MTZ017>020-022>027-061-062-220700-
NORTHEAST MONTANA

CITY           SKY/WX    TMP DP  RH WIND       PRES   REMARKS
GLASGOW        CLOUDY    48  33  56 NE14      29.95R
JORDAN           N/A     50  36  58 N3        29.96R
SIDNEY         PTCLDY    48  39  71 N7        29.91
WOLF POINT     CLOUDY    52  33  48 N17       29.94R
MALTA          CLOUDY    46  30  53 NE6       29.99R
POPLAR           N/A     50  36  57 N10       29.94R
$$

MTZ028>42-056>058-220700-
SOUTHCENTRAL AND SOUTHEAST MONTANA

CITY           SKY/WX    TMP DP  RH WIND       PRES   REMARKS
BAKER          CLOUDY    51  34  52 N10       29.87F
BILLINGS       LGT RAIN  40  39  97 N9        29.94F
LIVINGSTON     RAIN      37  35  92 E20G25    29.90S WCI  27
MILES CITY     MOCLDY    50  36  58 N16       29.88F
BIG TIMBER     CLOUDY    36  34  93 SE8       29.98R WCI  29
HARLOWTON      LGT RAIN  40  37  86 MISG      29.97R
LAUREL           N/A     39  39 100 N9        29.96S
$$

REGIONAL REPORTS...DAKOTAS

CITY           SKY/WX    TMP DP  RH WIND       PRES   REMARKS
WILLISTON      MOCLDY    50  38  63 N10       29.93R
MINOT          CLEAR     50  39  66 NW12      29.89R
DICKINSON      CLOUDY    50  37  61 N14       29.84F
BEACH          CLOUDY    46  37  71 NE5       29.92R
CROSBY           N/A     46  39  76 W7        29.96R
TIOGA            N/A     48  37  66 N9        29.93F
WATFORD CITY     N/A     45  41  87 NW5       29.90S
BISMARCK       PTCLDY    58  48  69 N10       29.81S
GRAND FORKS    CLEAR     62  59  90 NW7       29.73R
FARGO          CLEAR     72  69  90 SE8       29.71S
BUFFALO SD       N/A     53  36  52 N21       29.75F
$$

REGIONAL REPORTS...WYOMING/IDAHO/WASHINGTON

CITY           SKY/WX    TMP DP  RH WIND       PRES   REMARKS
GILLETTE       CLEAR     44  33  65 N13       29.85F
SHERIDAN       CLOUDY    46  41  82 NW6       29.91F
BUFFALO WY     CLOUDY    45  36  70 NW9       29.91S
CODY           MIX PCPN  37  34  89 N14       29.88S WCI  28
IDAHO FALLS    CLOUDY    40  40 100 SW5       29.80F
SALMON         CLOUDY    45  35  68 CALM      29.82F
BOISE          PTCLDY    49  36  61 NW8       29.82S
SPOKANE        PTCLDY    43  41  93 NE5       29.95F
$$

REGIONAL REPORTS...ALBERTA

CITY           SKY/WX    TMP DP  RH WIND       PRES   REMARKS
EDMONTON       CLOUDY    37  37 100 N6        30.10
CALGARY        LGT RAIN  36  32  87 N10       30.08R FOG     WCI  28
LETHBRIDGE     CLOUDY    37  32  81 W13       30.06F WCI  29
MEDICINE HAT   PTCLDY    37  34  87 W7        30.00F
$$

REGIONAL REPORTS...SASKATCHEWAN

CITY           SKY/WX    TMP DP  RH WIND       PRES   REMARKS
SWIFT CURRENT  CLEAR     32  28  86 W8        29.95S WCI  25
REGINA         CLOUDY    36  30  80 VRB2      29.95R
SASKATOON      PTCLDY    36  34  93 W6        29.96R WCI  31
$$



USA.gov is the U.S. government's official web portal to all federal, state and local government web resources and services.